ITY318 LIRF-LFPG

Flight info

Callsign ITY318
Flight time 1h 46m
Altitude 38000
Route NEMBO DCT GOVGO DCT AOSTA DCT ORSUD DCT MOLUS DCT UNKIR DCT GIVRI DCT TINIL
Aircraft A21N/M-SDE2E3FGHIRWXY/LB1

Departure

Time 2026-05-09 09:07
Airport Rome–Fiumicino Leonardo da Vinci International Airport (LIRF)

Arrival

Time 2026-05-09 10:53
Airport Charles de Gaulle International Airport (LFPG)
Time Latitude Longitude Altitude Speed Heading
2026-05-09 08:59 41.79961 12.25552 20 ft 0 kts 25°
2026-05-09 08:59 41.79984 12.25568 21 ft 5 kts 35°
2026-05-09 08:59 41.79995 12.25613 21 ft 6 kts 99°
2026-05-09 08:59 41.79975 12.25676 21 ft 6 kts 115°
2026-05-09 09:00 41.79946 12.25761 21 ft 14 kts 114°
2026-05-09 09:00 41.79952 12.25867 22 ft 10 kts 32°
2026-05-09 09:00 41.80013 12.25910 20 ft 11 kts 24°
2026-05-09 09:00 41.80091 12.25957 20 ft 14 kts 25°
2026-05-09 09:01 41.80190 12.26020 18 ft 17 kts 24°
2026-05-09 09:01 41.80312 12.26093 18 ft 20 kts 24°
2026-05-09 09:01 41.80430 12.26166 16 ft 18 kts 20°
2026-05-09 09:01 41.80515 12.26193 17 ft 5 kts 45°
2026-05-09 09:02 41.80523 12.26221 16 ft 4 kts 70°
2026-05-09 09:02 41.80532 12.26254 18 ft 3 kts 70°
2026-05-09 09:02 41.80546 12.26304 17 ft 8 kts 69°
2026-05-09 09:02 41.80568 12.26384 19 ft 11 kts 70°
2026-05-09 09:03 41.80602 12.26502 18 ft 16 kts 68°
2026-05-09 09:03 41.80647 12.26660 16 ft 20 kts 69°
2026-05-09 09:03 41.80695 12.26833 14 ft 19 kts 69°
2026-05-09 09:03 41.80731 12.26975 12 ft 15 kts 69°
2026-05-09 09:04 41.80764 12.27094 14 ft 11 kts 68°
2026-05-09 09:04 41.80807 12.27137 12 ft 8 kts 358°
2026-05-09 09:04 41.80870 12.27114 11 ft 7 kts 341°
2026-05-09 09:04 41.80898 12.27100 11 ft 3 kts 339°
2026-05-09 09:05 41.80901 12.27098 11 ft 0 kts 339°
2026-05-09 09:05 41.80939 12.27079 11 ft 12 kts 339°
2026-05-09 09:06 41.80979 12.27021 12 ft 8 kts 271°
2026-05-09 09:06 41.80957 12.26923 13 ft 20 kts 250°
2026-05-09 09:06 41.80792 12.26329 20 ft 117 kts 250°
2026-05-09 09:06 41.80397 12.24905 126 ft 194 kts 249°
2026-05-09 09:07 41.79916 12.23054 562 ft 225 kts 250°
2026-05-09 09:07 41.79422 12.20960 1126 ft 244 kts 258°
2026-05-09 09:07 41.79253 12.18698 2172 ft 245 kts 267°
2026-05-09 09:07 41.79184 12.16335 3070 ft 263 kts 268°
2026-05-09 09:08 41.79128 12.13906 3717 ft 268 kts 269°
2026-05-09 09:08 41.79069 12.11390 4041 ft 271 kts 269°
2026-05-09 09:08 41.79038 12.08864 4096 ft 271 kts 270°
2026-05-09 09:08 41.79030 12.06330 4113 ft 272 kts 270°
2026-05-09 09:09 41.79027 12.03766 4521 ft 280 kts 270°
2026-05-09 09:09 41.79024 12.01110 5669 ft 286 kts 270°
2026-05-09 09:09 41.79019 11.98474 7277 ft 280 kts 270°
2026-05-09 09:09 41.79013 11.95888 8888 ft 276 kts 270°
2026-05-09 09:10 41.79007 11.93323 10402 ft 276 kts 270°
2026-05-09 09:10 41.78999 11.90675 11326 ft 296 kts 270°
2026-05-09 09:10 41.78991 11.87813 12114 ft 316 kts 270°
2026-05-09 09:10 41.78981 11.84896 13069 ft 325 kts 271°
2026-05-09 09:11 41.78970 11.81860 13724 ft 326 kts 271°
2026-05-09 09:11 41.78958 11.78818 14038 ft 328 kts 271°
2026-05-09 09:11 41.78944 11.75724 14520 ft 336 kts 271°
2026-05-09 09:11 41.78930 11.72592 15635 ft 336 kts 271°
2026-05-09 09:12 41.78915 11.69454 16862 ft 337 kts 271°
2026-05-09 09:12 41.78900 11.66307 18015 ft 340 kts 270°
2026-05-09 09:12 41.78883 11.63122 18989 ft 344 kts 270°
2026-05-09 09:12 41.78876 11.59903 19919 ft 347 kts 272°
2026-05-09 09:13 41.79161 11.56693 20855 ft 350 kts 283°
2026-05-09 09:13 41.80078 11.53644 21763 ft 357 kts 298°
2026-05-09 09:13 41.81567 11.50945 22663 ft 364 kts 306°
2026-05-09 09:13 41.83242 11.48375 23568 ft 368 kts 308°
2026-05-09 09:14 41.84953 11.45810 24336 ft 371 kts 308°
2026-05-09 09:14 41.86680 11.43212 25007 ft 374 kts 307°
2026-05-09 09:14 41.88413 11.40584 25664 ft 378 kts 307°
2026-05-09 09:14 41.90160 11.37924 26307 ft 381 kts 307°
2026-05-09 09:15 41.91920 11.35236 26930 ft 385 kts 307°
2026-05-09 09:15 41.93691 11.32525 27539 ft 388 kts 307°
2026-05-09 09:15 41.95477 11.29785 28123 ft 392 kts 307°
2026-05-09 09:15 41.97285 11.27008 28609 ft 397 kts 306°
2026-05-09 09:16 41.99111 11.24202 29164 ft 400 kts 306°
2026-05-09 09:16 42.02802 11.18520 30236 ft 406 kts 306°
2026-05-09 09:16 42.04666 11.15646 30722 ft 407 kts 306°
2026-05-09 09:17 42.06520 11.12788 31393 ft 404 kts 306°
2026-05-09 09:17 42.08356 11.09957 32138 ft 398 kts 305°
2026-05-09 09:17 42.10162 11.07169 32883 ft 393 kts 304°
2026-05-09 09:17 42.11950 11.04403 33524 ft 389 kts 304°
2026-05-09 09:18 42.13722 11.01657 34124 ft 387 kts 304°
2026-05-09 09:18 42.15476 10.98936 34622 ft 384 kts 304°
2026-05-09 09:18 42.17225 10.96219 35073 ft 382 kts 304°
2026-05-09 09:18 42.18964 10.93517 35528 ft 381 kts 304°
2026-05-09 09:19 42.20694 10.90825 35964 ft 379 kts 304°
2026-05-09 09:19 42.22422 10.88134 36380 ft 378 kts 304°
2026-05-09 09:19 42.24141 10.85455 36799 ft 377 kts 304°
2026-05-09 09:19 42.25860 10.82786 37202 ft 377 kts 305°
2026-05-09 09:20 42.27702 10.80256 37614 ft 380 kts 311°
2026-05-09 09:20 42.29777 10.78077 37989 ft 387 kts 319°
2026-05-09 09:20 42.32157 10.76284 38103 ft 395 kts 326°
2026-05-09 09:20 42.34690 10.74812 38103 ft 398 kts 329°
2026-05-09 09:21 42.39916 10.72211 38102 ft 401 kts 331°
2026-05-09 09:21 42.45185 10.69716 38102 ft 401 kts 331°
2026-05-09 09:22 42.50442 10.67170 38102 ft 401 kts 331°
2026-05-09 09:22 42.55676 10.64584 38100 ft 400 kts 330°
2026-05-09 09:23 42.60900 10.61983 38102 ft 400 kts 330°
2026-05-09 09:23 42.66118 10.59379 38102 ft 400 kts 330°
2026-05-09 09:24 42.71335 10.56773 38098 ft 400 kts 330°
2026-05-09 09:24 42.76578 10.54149 38106 ft 402 kts 330°
2026-05-09 09:25 42.81820 10.51524 38094 ft 401 kts 330°
2026-05-09 09:25 42.87059 10.48896 38091 ft 401 kts 330°
2026-05-09 09:26 42.92296 10.46263 38092 ft 401 kts 330°
2026-05-09 09:26 42.97533 10.43624 38105 ft 401 kts 330°
2026-05-09 09:27 43.02763 10.40986 38096 ft 400 kts 330°
2026-05-09 09:27 43.07989 10.38344 38093 ft 400 kts 330°
2026-05-09 09:28 43.13212 10.35699 38090 ft 400 kts 330°
2026-05-09 09:28 43.18180 10.32529 38098 ft 386 kts 319°
2026-05-09 09:29 43.22501 10.28262 38091 ft 381 kts 314°
2026-05-09 09:29 43.26613 10.23844 38092 ft 380 kts 314°
2026-05-09 09:30 43.30751 10.19324 38097 ft 381 kts 313°
2026-05-09 09:30 43.34915 10.14785 38094 ft 383 kts 313°
2026-05-09 09:31 43.39094 10.10248 38104 ft 383 kts 314°
2026-05-09 09:32 43.45362 10.03442 38091 ft 383 kts 314°
2026-05-09 09:32 43.49538 9.98897 38089 ft 383 kts 314°
2026-05-09 09:33 43.53709 9.94346 38094 ft 383 kts 313°
2026-05-09 09:33 43.57878 9.89790 38095 ft 382 kts 313°
2026-05-09 09:34 43.62017 9.85257 38088 ft 382 kts 314°
2026-05-09 09:34 43.66187 9.80683 38095 ft 384 kts 313°
2026-05-09 09:36 43.82939 9.62223 38102 ft 385 kts 314°
2026-05-09 09:37 43.87122 9.57592 38088 ft 385 kts 314°
2026-05-09 09:37 43.91302 9.52957 38089 ft 385 kts 314°
2026-05-09 09:38 43.95480 9.48315 38089 ft 385 kts 313°
2026-05-09 09:38 43.98949 9.44454 38092 ft 385 kts 313°
2026-05-09 09:39 44.03133 9.39787 38084 ft 386 kts 313°
2026-05-09 09:39 44.08030 9.34315 38088 ft 386 kts 313°
2026-05-09 09:40 44.11508 9.30424 38088 ft 386 kts 313°
2026-05-09 09:40 44.15693 9.25732 38088 ft 386 kts 313°
2026-05-09 09:41 44.19874 9.21035 38088 ft 386 kts 313°
2026-05-09 09:41 44.24053 9.16332 38088 ft 386 kts 313°
2026-05-09 09:42 44.28227 9.11624 38086 ft 385 kts 313°
2026-05-09 09:42 44.32397 9.06915 38100 ft 387 kts 313°
2026-05-09 09:43 44.36583 9.02174 38098 ft 388 kts 313°
2026-05-09 09:43 44.40774 8.97421 38101 ft 388 kts 313°
2026-05-09 09:44 44.44971 8.92655 38105 ft 388 kts 313°
2026-05-09 09:44 44.49161 8.87885 38096 ft 388 kts 313°
2026-05-09 09:45 44.53344 8.83114 38101 ft 388 kts 313°
2026-05-09 09:45 44.57528 8.78335 38101 ft 388 kts 313°
2026-05-09 09:46 44.61710 8.73549 38104 ft 388 kts 313°
2026-05-09 09:46 44.65895 8.68748 38106 ft 389 kts 313°
2026-05-09 09:47 44.70089 8.63934 38104 ft 389 kts 313°
2026-05-09 09:47 44.74281 8.59113 38105 ft 389 kts 313°
2026-05-09 09:48 44.78441 8.54314 38105 ft 389 kts 313°
2026-05-09 09:48 44.82626 8.49477 38108 ft 389 kts 313°
2026-05-09 09:49 44.86805 8.44635 38110 ft 389 kts 313°
2026-05-09 09:49 44.90860 8.39928 38115 ft 389 kts 313°
2026-05-09 09:50 44.95043 8.35062 38106 ft 390 kts 313°
2026-05-09 09:50 44.99170 8.30255 38107 ft 391 kts 313°
2026-05-09 09:51 45.03262 8.25478 38108 ft 391 kts 313°
2026-05-09 09:51 45.07454 8.20578 38114 ft 391 kts 313°
2026-05-09 09:52 45.11639 8.15673 38109 ft 391 kts 313°
2026-05-09 09:52 45.15824 8.10759 38113 ft 391 kts 313°
2026-05-09 09:53 45.20013 8.05829 38114 ft 393 kts 313°
2026-05-09 09:53 45.24219 8.00870 38118 ft 393 kts 313°
2026-05-09 09:54 45.28302 7.96048 38121 ft 393 kts 313°
2026-05-09 09:54 45.32504 7.91075 38123 ft 394 kts 313°
2026-05-09 09:55 45.36719 7.86075 38124 ft 395 kts 313°
2026-05-09 09:55 45.40927 7.81077 38123 ft 394 kts 313°
2026-05-09 09:56 45.45145 7.76056 38123 ft 395 kts 313°
2026-05-09 09:56 45.49367 7.71018 38124 ft 396 kts 313°
2026-05-09 09:57 45.53595 7.65951 38129 ft 398 kts 314°
2026-05-09 09:57 45.57844 7.60871 38136 ft 399 kts 314°
2026-05-09 09:58 45.62087 7.55785 38125 ft 398 kts 313°
2026-05-09 09:58 45.66323 7.50692 38130 ft 398 kts 314°
2026-05-09 09:59 45.70561 7.45581 38111 ft 399 kts 313°
2026-05-09 09:59 45.74799 7.40460 38109 ft 400 kts 313°
2026-05-09 10:00 45.79063 7.35304 38103 ft 402 kts 314°
2026-05-09 10:00 45.83549 7.30439 38100 ft 406 kts 317°
2026-05-09 10:01 45.88188 7.25800 38107 ft 406 kts 318°
2026-05-09 10:01 45.92828 7.21166 38112 ft 407 kts 318°
2026-05-09 10:02 45.97456 7.16472 38105 ft 408 kts 318°
2026-05-09 10:02 46.02086 7.11734 38072 ft 410 kts 317°
2026-05-09 10:03 46.06735 7.06950 38089 ft 411 kts 317°
2026-05-09 10:03 46.11366 7.02188 38099 ft 411 kts 318°
2026-05-09 10:04 46.16020 6.97400 38080 ft 410 kts 318°
2026-05-09 10:04 46.20675 6.92609 38106 ft 412 kts 319°
2026-05-09 10:05 46.25341 6.87786 38089 ft 413 kts 318°
2026-05-09 10:05 46.30007 6.82939 38073 ft 413 kts 318°
2026-05-09 10:06 46.34690 6.78070 38077 ft 416 kts 318°
2026-05-09 10:06 46.39396 6.73160 38073 ft 417 kts 319°
2026-05-09 10:07 46.43830 6.67842 38073 ft 410 kts 307°
2026-05-09 10:07 46.47099 6.61197 38075 ft 403 kts 297°
2026-05-09 10:08 46.49933 6.54189 38078 ft 402 kts 295°
2026-05-09 10:08 46.52679 6.47113 38074 ft 402 kts 295°
2026-05-09 10:09 46.55439 6.40015 38076 ft 405 kts 295°
2026-05-09 10:09 46.58222 6.32900 38074 ft 405 kts 295°
2026-05-09 10:10 46.61012 6.25775 38065 ft 405 kts 295°
2026-05-09 10:10 46.63798 6.18647 38069 ft 405 kts 295°
2026-05-09 10:11 46.66577 6.11512 38063 ft 405 kts 295°
2026-05-09 10:11 46.69357 6.04353 38063 ft 407 kts 295°
2026-05-09 10:12 46.72145 5.97154 38059 ft 409 kts 295°
2026-05-09 10:12 46.74936 5.89932 38058 ft 409 kts 295°
2026-05-09 10:13 46.77700 5.82760 38054 ft 409 kts 295°
2026-05-09 10:13 46.80714 5.75701 38053 ft 414 kts 304°
2026-05-09 10:14 46.85031 5.70045 38052 ft 425 kts 322°
2026-05-09 10:14 46.90114 5.65663 38048 ft 430 kts 326°
2026-05-09 10:15 46.95383 5.61505 38047 ft 431 kts 327°
2026-05-09 10:15 47.00662 5.57346 38047 ft 431 kts 327°
2026-05-09 10:16 47.05917 5.53138 38057 ft 430 kts 327°
2026-05-09 10:16 47.11159 5.48901 38047 ft 430 kts 327°
2026-05-09 10:17 47.16389 5.44659 38045 ft 430 kts 327°
2026-05-09 10:17 47.21620 5.40407 38048 ft 429 kts 327°
2026-05-09 10:18 47.26853 5.36145 38055 ft 431 kts 327°
2026-05-09 10:18 47.32105 5.31860 37733 ft 432 kts 327°
2026-05-09 10:18 47.34733 5.29714 37467 ft 432 kts 327°
2026-05-09 10:19 47.37364 5.27564 37202 ft 433 kts 327°
2026-05-09 10:19 47.39997 5.25409 36938 ft 433 kts 327°
2026-05-09 10:19 47.42621 5.23259 36612 ft 428 kts 327°
2026-05-09 10:19 47.45210 5.21138 36082 ft 424 kts 327°
2026-05-09 10:20 47.47779 5.19028 35443 ft 422 kts 327°
2026-05-09 10:20 47.50352 5.16909 34740 ft 423 kts 328°
2026-05-09 10:20 47.52923 5.14791 34075 ft 424 kts 328°
2026-05-09 10:20 47.55506 5.12663 33315 ft 424 kts 328°
2026-05-09 10:21 47.58060 5.10489 32589 ft 423 kts 325°
2026-05-09 10:21 47.60424 5.07929 31868 ft 421 kts 319°
2026-05-09 10:21 47.62688 5.05155 31147 ft 424 kts 318°
2026-05-09 10:21 47.64949 5.02316 30402 ft 428 kts 317°
2026-05-09 10:22 47.67224 4.99449 29601 ft 430 kts 317°
2026-05-09 10:22 47.69500 4.96584 29035 ft 427 kts 317°
2026-05-09 10:22 47.71750 4.93752 28485 ft 422 kts 317°
2026-05-09 10:22 47.73988 4.90927 28058 ft 435 kts 317°
2026-05-09 10:23 47.76314 4.87981 27646 ft 441 kts 317°
2026-05-09 10:23 47.78642 4.85030 27310 ft 439 kts 317°
2026-05-09 10:23 47.80959 4.82092 26993 ft 436 kts 317°
2026-05-09 10:23 47.83286 4.79135 26662 ft 433 kts 317°
2026-05-09 10:24 47.85564 4.76239 26345 ft 429 kts 317°
2026-05-09 10:24 47.87827 4.73357 26026 ft 426 kts 317°
2026-05-09 10:24 47.90071 4.70495 25710 ft 423 kts 317°
2026-05-09 10:24 47.92270 4.67688 25411 ft 421 kts 317°
2026-05-09 10:25 47.94494 4.64845 25100 ft 420 kts 317°
2026-05-09 10:25 47.96703 4.62019 24780 ft 418 kts 317°
2026-05-09 10:25 47.98902 4.59202 24467 ft 415 kts 317°
2026-05-09 10:25 48.01079 4.56410 24174 ft 412 kts 317°
2026-05-09 10:26 48.03245 4.53628 23873 ft 409 kts 317°
2026-05-09 10:26 48.04647 4.51827 23675 ft 407 kts 317°
2026-05-09 10:26 48.06787 4.49073 23341 ft 404 kts 317°
2026-05-09 10:26 48.08911 4.46337 23033 ft 402 kts 317°
2026-05-09 10:27 48.11702 4.42737 22636 ft 399 kts 317°
2026-05-09 10:27 48.13120 4.40906 22444 ft 398 kts 317°
2026-05-09 10:27 48.15212 4.38203 22165 ft 398 kts 317°
2026-05-09 10:27 48.17307 4.35492 21867 ft 399 kts 317°
2026-05-09 10:28 48.19403 4.32778 21574 ft 397 kts 317°
2026-05-09 10:28 48.21491 4.30071 21283 ft 395 kts 317°
2026-05-09 10:28 48.23563 4.27383 21007 ft 393 kts 317°
2026-05-09 10:28 48.25584 4.24712 20713 ft 390 kts 314°
2026-05-09 10:29 48.27443 4.21708 20432 ft 386 kts 308°
2026-05-09 10:29 48.29138 4.18670 20157 ft 384 kts 307°
2026-05-09 10:29 48.30828 4.15579 19869 ft 382 kts 307°
2026-05-09 10:29 48.32505 4.12506 19596 ft 380 kts 307°
2026-05-09 10:30 48.34175 4.09448 19316 ft 378 kts 307°
2026-05-09 10:30 48.35839 4.06403 19041 ft 376 kts 307°
2026-05-09 10:30 48.37496 4.03368 18768 ft 375 kts 307°
2026-05-09 10:30 48.39147 4.00343 18489 ft 374 kts 307°
2026-05-09 10:31 48.40794 3.97325 18194 ft 372 kts 307°
2026-05-09 10:31 48.42432 3.94319 17905 ft 371 kts 307°
2026-05-09 10:31 48.44051 3.91347 17627 ft 369 kts 307°
2026-05-09 10:31 48.45676 3.88362 17344 ft 368 kts 307°
2026-05-09 10:32 48.47291 3.85387 17066 ft 366 kts 307°
2026-05-09 10:32 48.48899 3.82422 16807 ft 365 kts 307°
2026-05-09 10:32 48.50503 3.79465 16532 ft 364 kts 307°
2026-05-09 10:32 48.52099 3.76519 16249 ft 362 kts 307°
2026-05-09 10:33 48.53669 3.73554 15964 ft 360 kts 304°
2026-05-09 10:33 48.55086 3.70456 15754 ft 358 kts 301°
2026-05-09 10:33 48.56448 3.67311 15500 ft 357 kts 301°
2026-05-09 10:33 48.57795 3.64169 15245 ft 356 kts 301°
2026-05-09 10:34 48.59137 3.61034 15061 ft 355 kts 301°
2026-05-09 10:34 48.61594 3.54598 14480 ft 351 kts 291°
2026-05-09 10:34 48.62501 3.51204 13781 ft 345 kts 289°
2026-05-09 10:35 48.63349 3.47839 12986 ft 340 kts 288°
2026-05-09 10:35 48.64183 3.44519 12212 ft 336 kts 288°
2026-05-09 10:35 48.65011 3.41227 11805 ft 335 kts 289°
2026-05-09 10:35 48.65841 3.37941 11548 ft 333 kts 289°
2026-05-09 10:36 48.66668 3.34677 11292 ft 332 kts 289°
2026-05-09 10:36 48.67490 3.31425 11051 ft 330 kts 289°
2026-05-09 10:36 48.68308 3.28190 10797 ft 329 kts 289°
2026-05-09 10:36 48.69125 3.24962 10549 ft 327 kts 289°
2026-05-09 10:37 48.69933 3.21755 10308 ft 326 kts 288°
2026-05-09 10:37 48.70737 3.18558 10071 ft 325 kts 289°
2026-05-09 10:37 48.71537 3.15380 9813 ft 315 kts 288°
2026-05-09 10:37 48.72294 3.12379 9537 ft 296 kts 289°
2026-05-09 10:38 48.73009 3.09540 9257 ft 283 kts 288°
2026-05-09 10:38 48.73704 3.06767 9006 ft 281 kts 288°
2026-05-09 10:38 48.74392 3.04003 8764 ft 280 kts 288°
2026-05-09 10:38 48.75082 3.01237 8499 ft 280 kts 288°
2026-05-09 10:39 48.75772 2.98478 8282 ft 280 kts 288°
2026-05-09 10:39 48.76462 2.95715 8152 ft 280 kts 288°
2026-05-09 10:39 48.77149 2.92957 8023 ft 280 kts 288°
2026-05-09 10:39 48.77835 2.90198 7854 ft 280 kts 288°
2026-05-09 10:40 48.78520 2.87440 7602 ft 279 kts 289°
2026-05-09 10:40 48.79203 2.84685 7366 ft 279 kts 289°
2026-05-09 10:40 48.79887 2.81935 7113 ft 278 kts 289°
2026-05-09 10:40 48.80569 2.79188 6872 ft 278 kts 288°
2026-05-09 10:41 48.81247 2.76440 6622 ft 278 kts 289°
2026-05-09 10:41 48.81926 2.73694 6372 ft 278 kts 288°
2026-05-09 10:41 48.82489 2.70902 6156 ft 276 kts 277°
2026-05-09 10:41 48.82549 2.68017 5925 ft 274 kts 266°
2026-05-09 10:42 48.82448 2.65134 5693 ft 273 kts 265°
2026-05-09 10:42 48.82337 2.62256 5456 ft 274 kts 264°
2026-05-09 10:42 48.82227 2.59374 5229 ft 273 kts 264°
2026-05-09 10:42 48.82122 2.56498 5094 ft 274 kts 265°
2026-05-09 10:43 48.82023 2.53611 4990 ft 274 kts 264°
2026-05-09 10:43 48.81922 2.50722 4972 ft 274 kts 265°
2026-05-09 10:43 48.81819 2.47839 4971 ft 274 kts 265°
2026-05-09 10:43 48.81712 2.44960 4968 ft 273 kts 265°
2026-05-09 10:44 48.81592 2.42091 4969 ft 272 kts 265°
2026-05-09 10:44 48.81479 2.39224 4973 ft 272 kts 264°
2026-05-09 10:44 48.81413 2.36347 4970 ft 273 kts 271°
2026-05-09 10:44 48.81762 2.33512 4975 ft 276 kts 289°
2026-05-09 10:45 48.82747 2.31064 4975 ft 279 kts 311°
2026-05-09 10:46 48.88871 2.25352 4953 ft 225 kts 336°
2026-05-09 10:46 48.90264 2.24452 4960 ft 211 kts 338°
2026-05-09 10:46 48.91606 2.23603 4966 ft 209 kts 338°
2026-05-09 10:46 48.92953 2.22760 4968 ft 210 kts 338°
2026-05-09 10:47 48.94302 2.21919 4972 ft 209 kts 338°
2026-05-09 10:47 48.95693 2.21390 4952 ft 206 kts
2026-05-09 10:47 48.96915 2.22317 4959 ft 196 kts 54°
2026-05-09 10:47 48.97506 2.24157 4978 ft 194 kts 80°
2026-05-09 10:48 48.97696 2.26181 4973 ft 194 kts 87°
2026-05-09 10:48 48.97800 2.28224 4978 ft 192 kts 88°
2026-05-09 10:48 48.97897 2.30161 4991 ft 178 kts 88°
2026-05-09 10:48 48.97993 2.32031 4965 ft 177 kts 88°
2026-05-09 10:49 48.98090 2.33887 4872 ft 175 kts 87°
2026-05-09 10:49 48.98189 2.35727 4513 ft 173 kts 88°
2026-05-09 10:49 48.98285 2.37517 4159 ft 167 kts 88°
2026-05-09 10:49 48.98378 2.39258 3762 ft 162 kts 88°
2026-05-09 10:50 48.98469 2.40987 3238 ft 165 kts 86°
2026-05-09 10:50 48.98573 2.42658 2935 ft 152 kts 85°
2026-05-09 10:50 48.98709 2.44210 2671 ft 143 kts 83°
2026-05-09 10:50 48.98801 2.45669 2352 ft 139 kts 90°
2026-05-09 10:51 48.98828 2.47146 1917 ft 138 kts 88°
2026-05-09 10:51 48.98908 2.48569 1656 ft 130 kts 86°
2026-05-09 10:51 48.98967 2.49882 1470 ft 118 kts 86°
2026-05-09 10:51 48.99016 2.51103 1311 ft 114 kts 85°
2026-05-09 10:52 48.99075 2.52301 1168 ft 115 kts 85°
2026-05-09 10:52 48.99135 2.53473 943 ft 106 kts 87°
2026-05-09 10:52 48.99196 2.54562 736 ft 101 kts 84°
2026-05-09 10:52 48.99247 2.55631 538 ft 102 kts 87°
2026-05-09 10:53 48.99300 2.56669 399 ft 92 kts 83°
2026-05-09 10:53 48.99350 2.57578 357 ft 78 kts 86°
2026-05-09 10:53 48.99376 2.58099 361 ft 32 kts 86°
2026-05-09 10:53 48.99397 2.58426 356 ft 31 kts 77°
2026-05-09 10:54 48.99473 2.58714 364 ft 26 kts 65°
2026-05-09 10:54 48.99545 2.58946 361 ft 23 kts 65°
2026-05-09 10:54 48.99564 2.59007 362 ft 0 kts 66°
2026-05-09 10:55 48.99565 2.59012 360 ft 2 kts 66°
2026-05-09 10:55 48.99579 2.59060 362 ft 10 kts 66°
2026-05-09 10:55 48.99607 2.59213 358 ft 20 kts 85°
2026-05-09 10:56 48.99620 2.59450 359 ft 24 kts 85°
2026-05-09 10:56 48.99655 2.59667 358 ft 15 kts 36°
2026-05-09 10:56 48.99752 2.59681 360 ft 15 kts 355°
2026-05-09 10:56 48.99868 2.59667 357 ft 18 kts 356°
2026-05-09 10:57 48.99974 2.59602 357 ft 15 kts 298°
2026-05-09 10:57 48.99981 2.59440 357 ft 17 kts 267°
2026-05-09 10:57 48.99970 2.59252 359 ft 19 kts 264°
2026-05-09 10:57 48.99966 2.59047 357 ft 14 kts 284°
2026-05-09 10:58 48.99984 2.59011 363 ft 1 kts 348°
2026-05-09 10:58 49.00016 2.59002 360 ft 7 kts 335°
2026-05-09 10:58 49.00061 2.58918 360 ft 13 kts 317°
2026-05-09 10:58 49.00144 2.58893 361 ft 11 kts 355°
2026-05-09 10:59 49.00190 2.58900 363 ft 1 kts 44°
2026-05-09 10:59 49.00197 2.58967 362 ft 8 kts 86°
2026-05-09 10:59 49.00199 2.59007 363 ft 2 kts 86°
2026-05-09 10:59 49.00199 2.59018 363 ft 0 kts 86°